| time (UTC) | temp F | wind direction | speed knots | gust knots | rain 1hr in | rain 24hr in | rain mn in | humidity % | barometer mb |
| 20260507060012 | 54 | 140 | 0.9 | 2.6 | 0.00 | 0.15 | 0.00 | 91 | 1004.7 |
| 20260507054507 | 54 | 137 | 0.0 | 2.6 | 0.00 | 0.15 | 0.00 | 90 | 1004.7 |
| 20260507053007 | 55 | 138 | 0.9 | 2.6 | 0.00 | 0.15 | 0.00 | 91 | 1005.1 |
| 20260507051505 | 55 | 131 | 0.9 | 1.7 | 0.00 | 0.15 | 0.00 | 90 | 1005.1 |
| 20260507050006 | 55 | 142 | 0.9 | 1.7 | 0.00 | 0.15 | 0.00 | 90 | 1005.1 |
| 20260507044500 | 56 | 131 | 0.0 | 2.6 | 0.00 | 0.15 | 0.00 | 90 | 1005.3 |
| 20260507043100 | 56 | 158 | 0.9 | 2.6 | 0.00 | 0.15 | 0.00 | 91 | 1004.9 |
| 20260507041601 | 57 | 119 | 1.7 | 3.5 | 0.00 | 0.15 | 0.00 | 91 | 1004.9 |
| 20260507040051 | 58 | 116 | 1.7 | 2.6 | 0.00 | 0.15 | 0.00 | 92 | 1005.0 |
| 20260507034557 | 58 | 114 | 1.7 | 3.5 | 0.01 | 0.15 | 0.15 | 92 | 1004.8 |
| 20260507033054 | 58 | 111 | 1.7 | 2.6 | 0.01 | 0.15 | 0.15 | 92 | 1004.4 |
| 20260507031602 | 59 | 104 | 1.7 | 5.2 | 0.01 | 0.15 | 0.15 | 93 | 1004.4 |
| 20260507030053 | 59 | 105 | 0.9 | 5.2 | 0.01 | 0.15 | 0.15 | 93 | 1004.0 |
| 20260507024547 | 59 | 102 | 0.9 | 2.6 | 0.00 | 0.14 | 0.14 | 93 | 1003.8 |
| 20260507023049 | 59 | 107 | 0.9 | 3.5 | 0.00 | 0.14 | 0.14 | 93 | 1003.9 |
| 20260507021545 | 59 | 96 | 1.7 | 3.5 | 0.00 | 0.14 | 0.14 | 93 | 1003.9 |
| 20260507020048 | 59 | 108 | 0.9 | 5.2 | 0.00 | 0.14 | 0.14 | 93 | 1003.8 |
| 20260507014551 | 59 | 113 | 0.9 | 3.5 | 0.00 | 0.14 | 0.14 | 93 | 1003.8 |
| 20260507013045 | 59 | 126 | 0.9 | 3.5 | 0.00 | 0.14 | 0.14 | 93 | 1003.9 |
| 20260507011544 | 59 | 139 | 1.7 | 3.5 | 0.00 | 0.14 | 0.14 | 93 | 1003.9 |
| 20260507010044 | 59 | 102 | 1.7 | 5.2 | 0.00 | 0.14 | 0.14 | 93 | 1004.0 |
| 20260507004541 | 59 | 92 | 0.9 | 3.5 | 0.00 | 0.14 | 0.14 | 93 | 1004.0 |
| 20260507003043 | 59 | 109 | 0.9 | 3.5 | 0.00 | 0.14 | 0.14 | 93 | 1004.0 |
| 20260507001543 | 59 | 86 | 0.9 | 3.5 | 0.01 | 0.14 | 0.14 | 93 | 1003.9 |
| 20260507000041 | 59 | 109 | 0.9 | 3.5 | 0.03 | 0.14 | 0.14 | 93 | 1003.8 |
| 20260506234538 | 59 | 97 | 0.9 | 3.5 | 0.05 | 0.14 | 0.14 | 93 | 1003.6 |
| 20260506233042 | 59 | 84 | 0.9 | 5.2 | 0.05 | 0.14 | 0.14 | 93 | 1003.6 |
| 20260506231536 | 60 | 107 | 1.7 | 3.5 | 0.04 | 0.13 | 0.13 | 92 | 1003.4 |
| 20260506230034 | 60 | 99 | 1.7 | 7.8 | 0.02 | 0.10 | 0.10 | 92 | 1003.6 |
| 20260506224533 | 60 | 84 | 0.9 | 3.5 | 0.01 | 0.09 | 0.09 | 92 | 1003.8 |
| 20260506223035 | 60 | 86 | 0.9 | 3.5 | 0.01 | 0.09 | 0.09 | 92 | 1003.8 |
| 20260506221531 | 60 | 132 | 1.7 | 6.1 | 0.01 | 0.09 | 0.09 | 91 | 1003.8 |
| 20260506220030 | 60 | 104 | 0.9 | 6.1 | 0.01 | 0.08 | 0.08 | 91 | 1004.0 |
| 20260506214528 | 60 | 30 | 1.7 | 7.0 | 0.01 | 0.08 | 0.08 | 91 | 1004.0 |
| 20260506213027 | 60 | 105 | 0.9 | 3.5 | 0.02 | 0.08 | 0.08 | 91 | 1004.3 |
| 20260506211525 | 60 | 107 | 0.9 | 3.5 | 0.03 | 0.08 | 0.08 | 91 | 1004.5 |
| 20260506210027 | 60 | 103 | 1.7 | 6.1 | 0.03 | 0.07 | 0.07 | 90 | 1004.5 |
| 20260506204625 | 60 | 78 | 2.6 | 7.8 | 0.03 | 0.07 | 0.07 | 90 | 1004.5 |
| 20260506203022 | 61 | 96 | 0.9 | 5.2 | 0.03 | 0.06 | 0.06 | 90 | 1004.8 |
| 20260506201522 | 61 | 80 | 1.7 | 7.8 | 0.03 | 0.05 | 0.05 | 89 | 1004.7 |
| 20260506200020 | 62 | 92 | 0.9 | 10.4 | 0.03 | 0.04 | 0.04 | 89 | 1004.7 |
| 20260506194522 | 62 | 89 | 1.7 | 5.2 | 0.04 | 0.04 | 0.04 | 88 | 1004.7 |
| 20260506193019 | 63 | 71 | 0.9 | 5.2 | 0.03 | 0.03 | 0.03 | 88 | 1004.7 |
| 20260506191519 | 64 | 74 | 0.0 | 3.5 | 0.02 | 0.02 | 0.02 | 88 | 1004.6 |
| 20260506190015 | 65 | 71 | 0.9 | 6.1 | 0.01 | 0.01 | 0.01 | 83 | 1004.8 |
| 20260506184515 | 67 | 360 | 1.7 | 7.8 | 0.00 | 0.00 | 0.00 | 78 | 1004.9 |
| 20260506183013 | 68 | 81 | 0.9 | 7.8 | 0.00 | 0.00 | 0.00 | 75 | 1004.8 |
| 20260506181513 | 71 | 209 | 4.3 | 9.6 | 0.00 | 0.00 | 0.00 | 67 | 1004.9 |
| 20260506180012 | 72 | 226 | 4.3 | 9.6 | 0.00 | 0.00 | 0.00 | 61 | 1004.8 |
| 20260506174511 | 73 | 224 | 2.6 | 4.3 | 0.00 | 0.00 | 0.00 | 60 | 1004.8 |
| 20260506173012 | 73 | 329 | 2.6 | 8.7 | 0.00 | 0.00 | 0.00 | 60 | 1005.0 |
| 20260506171512 | 73 | 229 | 3.5 | 9.6 | 0.00 | 0.00 | 0.00 | 59 | 1005.0 |
| 20260506170008 | 74 | 207 | 1.7 | 7.8 | 0.00 | 0.00 | 0.00 | 60 | 1005.1 |
| 20260506164504 | 72 | 210 | 1.7 | 7.0 | 0.00 | 0.00 | 0.00 | 63 | 1005.2 |
| 20260506163003 | 71 | 175 | 1.7 | 7.0 | 0.00 | 0.00 | 0.00 | 64 | 1005.7 |
| 20260506161618 | 71 | 225 | 2.6 | 6.1 | 0.00 | 0.00 | 0.00 | 64 | 1005.9 |
| 20260506160058 | 71 | 252 | 3.5 | 7.8 | 0.00 | 0.00 | 0.00 | 64 | 1006.1 |
| 20260506154615 | 71 | 235 | 3.5 | 8.7 | 0.00 | 0.00 | 0.00 | 64 | 1006.3 |
| 20260506153107 | 71 | 248 | 2.6 | 13.0 | 0.00 | 0.00 | 0.00 | 64 | 1006.5 |
| 20260506151558 | 71 | 265 | 2.6 | 9.6 | 0.00 | 0.00 | 0.00 | 65 | 1006.8 |
| 20260506150052 | 71 | 223 | 2.6 | 7.0 | 0.00 | 0.00 | 0.00 | 66 | 1006.8 |
| 20260506144548 | 69 | 211 | 0.9 | 7.0 | 0.00 | 0.00 | 0.00 | 69 | 1007.0 |
| 20260506143101 | 69 | 257 | 2.6 | 6.1 | 0.00 | 0.00 | 0.00 | 69 | 1007.0 |
| 20260506141546 | 70 | 227 | 2.6 | 5.2 | 0.00 | 0.00 | 0.00 | 69 | 1006.9 |
| 20260506140045 | 69 | 249 | 1.7 | 7.0 | 0.00 | 0.00 | 0.00 | 71 | 1006.7 |
| 20260506134542 | 68 | 219 | 0.9 | 5.2 | 0.00 | 0.00 | 0.00 | 73 | 1006.9 |
| 20260506133039 | 67 | 286 | 0.9 | 7.8 | 0.00 | 0.00 | 0.00 | 75 | 1007.3 |
| 20260506131535 | 66 | 74 | 2.6 | 5.2 | 0.00 | 0.00 | 0.00 | 76 | 1007.6 |
| 20260506130034 | 66 | 72 | 1.7 | 13.0 | 0.00 | 0.00 | 0.00 | 76 | 1007.6 |
| 20260506124532 | 65 | 54 | 3.5 | 8.7 | 0.00 | 0.00 | 0.00 | 77 | 1007.5 |
| 20260506123033 | 64 | 62 | 0.9 | 3.5 | 0.00 | 0.00 | 0.00 | 79 | 1007.5 |
| 20260506121535 | 63 | 68 | 1.7 | 7.0 | 0.00 | 0.00 | 0.00 | 80 | 1007.7 |
| 20260506120028 | 63 | 34 | 2.6 | 8.7 | 0.00 | 0.00 | 0.00 | 80 | 1007.6 |
| 20260506114532 | 62 | 92 | 0.9 | 3.5 | 0.00 | 0.00 | 0.00 | 82 | 1007.9 |
| 20260506113024 | 62 | 61 | 0.9 | 2.6 | 0.00 | 0.00 | 0.00 | 82 | 1007.9 |
| 20260506111522 | 61 | 59 | 0.9 | 3.5 | 0.00 | 0.00 | 0.00 | 83 | 1008.1 |
| 20260506110021 | 61 | 74 | 0.9 | 2.6 | 0.00 | 0.00 | 0.00 | 84 | 1007.9 |
| 20260506104518 | 60 | 24 | 0.0 | 2.6 | 0.00 | 0.00 | 0.00 | 84 | 1008.0 |
| 20260506103015 | 60 | 69 | 0.0 | 3.5 | 0.00 | 0.00 | 0.00 | 84 | 1007.9 |
| 20260506101513 | 60 | 93 | 0.0 | 2.6 | 0.00 | 0.00 | 0.00 | 83 | 1008.0 |
| 20260506100012 | 60 | 82 | 0.0 | 3.5 | 0.00 | 0.00 | 0.00 | 83 | 1007.8 |
| 20260506094509 | 60 | 96 | 0.9 | 2.6 | 0.00 | 0.00 | 0.00 | 83 | 1007.7 |
| 20260506093008 | 60 | 74 | 0.0 | 3.5 | 0.00 | 0.00 | 0.00 | 82 | 1007.7 |
| 20260506091508 | 60 | 97 | 0.9 | 3.5 | 0.00 | 0.00 | 0.00 | 82 | 1007.8 |
| 20260506090005 | 60 | 97 | 0.9 | 2.6 | 0.00 | 0.00 | 0.00 | 81 | 1007.7 |
| 20260506084504 | 61 | 86 | 0.9 | 5.2 | 0.00 | 0.00 | 0.00 | 80 | 1007.9 |
| 20260506083001 | 61 | 80 | 0.9 | 2.6 | 0.00 | 0.00 | 0.00 | 80 | 1007.9 |
| 20260506081559 | 61 | 228 | 0.9 | 6.1 | 0.00 | 0.00 | 0.00 | 79 | 1007.9 |
| 20260506073058 | 63 | 237 | 0.9 | 3.5 | 0.00 | 0.00 | 0.00 | 77 | 1007.6 |
| 20260506071553 | 63 | 243 | 1.7 | 4.3 | 0.00 | 0.00 | 0.00 | 76 | 1007.4 |
| 20260506061548 | 64 | 244 | 1.7 | 4.3 | 0.00 | 0.00 | 0.00 | 72 | 1007.3 |